{"data":{"norad_id":66106,"intl_designator":"2025-236W","name":"STARLINK-35584","alt_names":[],"object_type":"PAYLOAD","status":"ACTIVE","operator":null,"country":"US","launch_date":"2025-10-19","launch_site_code":"AFWTR","launch_vehicle":null,"mission":null,"orbit_class":"UNKNOWN","rcs_meters":null,"size_class":null,"mass_kg":null,"dimensions":null,"purposes":["comms"],"wikipedia_slug":null,"has_3d_model":false,"image_url":null,"decayed_at":null,"tle_current":{"epoch":"2026-09-20T12:16:59.789568Z","epoch_age_seconds":99428,"freshness":"FRESH","line1":"1 66106U 25236W   26263.51180312  .00016580  00000+0  50068-3 0  9998","line2":"2 66106  53.1594 275.3331 0001337  82.7009 277.4145 15.34405334 52821","mean_motion":15.34405334,"eccentricity":0.0001337,"inclination_deg":53.1594,"raan_deg":275.3331,"arg_perigee_deg":82.7009,"mean_anomaly_deg":277.4145,"bstar":0.00050068,"rev_number":5282,"period_min":93.847431841631,"perigee_km":461.77276826047,"apogee_km":463.60200470141,"semimajor_km":6840.8243864809,"source":"CELESTRAK","updated_at":"2026-09-21T09:00:35.804382Z"}}}